Regional Weather Roundup
Issued by NWS

Home | Current Version | Previous Version | Text Only | Print | Product List | Glossary Off
Versions: 1 2 3 4 5 6 7 8 9 10 11 12 13 14 15 16 17 18 19 20 21 22 23 24 25 26 27 28 29 30 31 32 33 34 35 36 37 38 39 40 41 42 43 44 45 46 47 48 49 50

000
ASUS43 KLSX 221410
RWRMO

WEATHER SUMMARY FOR MISSOURI
NATIONAL WEATHER SERVICE SPRINGFIELD MO
800 AM CST WED FEB 22 2017

NOTE: "FAIR" INDICATES FEW OR NO CLOUDS BELOW 12,000 FEET WITH NO
       SIGNIFICANT WEATHER AND/OR OBSTRUCTIONS TO VISIBILITY.
       CURRENT SKY AND/OR WEATHER CONDITIONS ARE NOT AVAILABLE FOR
       CHILLICOTHE AND FARMINGTON.

MOZ001>031-035>038-043-044-053-054-221500-
...NORTHERN AND WESTERN MISSOURI...

CITY           SKY/WX    TMP DP  RH WIND       PRES   REMARKS
KANSAS CTY INT PTSUNNY   56  41  57 S17       29.75F
KANSAS C DTWN  FAIR      54  42  64 S8        29.77F
LEE`S SUMMIT   FAIR      52  46  80 S14       29.80S
ST JOSEPH      FAIR      49  38  65 S6        29.74F
CHILLICOTHE      N/A     51  47  86 S6        29.78F
KIRKSVILLE     FAIR      52  51  97 S8        29.80S

$$
MOZ066>068-077>081-088>096-101>105-221500-
...SOUTHWEST MISSOURI...

CITY           SKY/WX    TMP DP  RH WIND       PRES   REMARKS
SPRINGFIELD    CLOUDY    55  54  96 S9        29.87S FOG
JOPLIN         FOG       52  52 100 S10       29.87R VSB<1/4
BRANSON        CLOUDY    54  54 100 CALM      29.91R FOG

$$
MOZ032>034-039>042-045>050-055>058-069>072-221500-
...CENTRAL MISSOURI...

CITY           SKY/WX    TMP DP  RH WIND       PRES   REMARKS
COLUMBIA       FOG       53  53 100 S9        29.85S VSB<1/4
JEFFERSON CITY FOG       53  53 100 SW6       29.86S VSB 1/2
ROLLA          FOG       52  52 100 S9        29.85F VSB<1/4
SEDALIA        FOG       53  53 100 S13       29.84S VSB 1/2
WHITEMAN AFB   FOG       52  52 100 S12       29.81F VSB 1/2
WARRENSBURG    PTSUNNY   48  46  93 S8        29.82R FOG
OSAGE BEACH    FOG       53  53 100 S7        29.88R VSB 1/4

$$
MOZ051-052-059>065-221500-
...EAST CENTRAL MISSOURI...

CITY           SKY/WX    TMP DP  RH WIND       PRES   REMARKS
ST LOUIS INTL  FOG       54  53  97 SW8       29.86F VSB 1/4
SPIRIT OF STL  FOG       53  53 100 SW3       29.86F VSB 3/4
ST CHARLES     FOG       52  52 100 S5        29.86F VSB 1/4

$$
MOZ072>076-082>087-097>100-106>115-221500-
...SOUTH CENTRAL AND SOUTHEAST MISSOURI...

CITY           SKY/WX    TMP DP  RH WIND       PRES   REMARKS
CAPE GIRARDEAU CLOUDY    57  55  93 CALM      29.91S FOG
FARMINGTON     CLOUDY    57  54  89 SW3       29.91S
POPLAR BLUFF   CLOUDY    58  57  97 CALM      29.89F FOG
WEST PLAINS    CLOUDY    56  55  97 CALM      29.91F

$$




USA.gov is the U.S. government's official web portal to all federal, state and local government web resources and services.